Miscellaneous Hydrologic Data Report
Issued by NWS (Baltimore/Washington) Sterling, VA
1 of 55 available versions  First Miscellaneous Hydrologic Data Report Previous Miscellaneous Hydrologic Data Report  Print this page Close this Window


000
ASUS41 KLWX 281910
RWRLWX

REGIONAL WEATHER ROUNDUP
NATIONAL WEATHER SERVICE BALTIMORE MD/WASHINGTON DC
300 PM EDT TUE APR 28 2015

Note: "FAIR" indicates few or no clouds below 12,000 feet
with no significant weather and/or obstructions to visibility.
 TC=TEMPERATURE CELSIUS

 * =Non NWS site. Station does not report precipitation (e.g. rain,
    snow, etc.), thunder, or fog.

DCZ001-MDZ009-015-VAZ040>042-051-053>054-282000-
WASHINGTON METRO

CITY           SKY/WX    TMP DP  RH WIND       PRES   REMARKS
WASHINGTON NAT PTSUNNY   68  40  35 NW12G22   29.88F
DULLES         PTSUNNY   65  39  38 NW12G20   29.89F
ANDREWS AFB    MOSUNNY   66  41  39 N14G22    29.87S
FT BELVOIR     MOSUNNY   67  40  36 NW10      29.88F
QUANTICO       PTSUNNY   68  39  34 N10       29.89F
COLLEGE PARK*  PTSUNNY   68  39  34 N8        29.87F
LEESBURG*      CLOUDY    68  43  40 N9G18     29.90F
MANASSAS*      PTSUNNY   66  39  37 N14G22    29.90F
GAITHERSBURG*  PTSUNNY   64  39  39 NW5       29.92S

$$

MDZ006>007-011-014-282000-
BALTIMORE METRO

CITY           SKY/WX    TMP DP  RH WIND       PRES   REMARKS
BWI AIRPORT    MOSUNNY   69  40  34 N15G21    29.85F
MD SCIENCE CTR   N/A     67  37  33 MISG      29.86F
MARTIN STATE   PTSUNNY   68  43  40 NW15G22   29.86F
ANNAPOLIS      PTSUNNY   64  40  41 NW10      29.86S
FORT MEADE*    PTSUNNY   68  37  32 NW8       29.89F

$$

MDZ012-015-019>023-282000-
MARYLAND EASTERN SHORE

CITY           SKY/WX    TMP DP  RH WIND       PRES   REMARKS
OCEAN CITY     MOSUNNY   67  40  37 NW9G16    29.83S
SALISBURY      PTSUNNY   67  39  35 N16       29.84S
BAY BRIDGE AP*   N/A    N/A N/A N/A N8        29.87S
CAMBRIDGE*     MOSUNNY   64  37  36 NW15G22   29.86S
EASTON*        MOSUNNY   68  45  42 NW14G24   29.89F

$$

MDZ017>025-282000-
SOUTHERN MARYLAND

CITY           SKY/WX    TMP DP  RH WIND       PRES   REMARKS
PATUXENT RIVER MOSUNNY   65  42  43 NE14      29.87S
ST INIGOES     MOSUNNY   66  41  40 VRB6      29.86F
LEONARDTOWN*   MOSUNNY   64  37  36 NW8       29.88F

$$

MDZ003>005-282000-
NORTH CENTRAL MARYLAND

CITY           SKY/WX    TMP DP  RH WIND       PRES   REMARKS
FREDERICK*     PTSUNNY   70  32  24 N9        29.91F
HAGERSTOWN APT PTSUNNY   66  38  35 NW10G23   29.88F
WESTMINSTER*   PTSUNNY  N/A N/A N/A N10G16    29.88F

$$

MDZ501>502-282000-
WESTERN MARYLAND

CITY           SKY/WX    TMP DP  RH WIND       PRES   REMARKS
OAKLAND*       MOSUNNY   54  37  54 NW10G17   29.97F
CUMBERLAND*    MOSUNNY   64  34  32 NW9G20    29.98F

$$

VAZ025>031-282000-
SHENANDOAH VALLEY

CITY           SKY/WX    TMP DP  RH WIND       PRES   REMARKS
WINCHESTER*    PTSUNNY   68  30  24 NW8G18    29.91F
FRONT ROYAL*   MOCLDY    64  37  36 N7        29.91F
LURAY*         CLOUDY    68  41  37 NW9G18    29.93F
NEW MARKET*    MOCLDY    62  40  44 N7        29.93F
STAUNTON*      FAIR      65  38  36 NE7       29.94F
WAYNESBORO*    FAIR      61  38  41 N9        29.93F

$$

WVZ021-048>050-054>055-282000-
EASTERN WEST VIRGINIA PANHANDLE

CITY           SKY/WX    TMP DP  RH WIND       PRES   REMARKS
MARTINSBURG    PTSUNNY   67  37  33 NW14      29.90F
PETERSBURG*    PTSUNNY   63  36  37 N3        29.97F

$$

VAZ036>039-050-282000-
CENTRAL FOOTHILLS

CITY           SKY/WX    TMP DP  RH WIND       PRES   REMARKS
CHARLOTTESVILL MOSUNNY   67  38  34 N13       29.91F
CULPEPER*      PTSUNNY   70  39  32 NW13      29.90F
ORANGE*        PTSUNNY   68  41  37 NW7       29.92F
GORDONSVILLE*  FAIR      67  40  37 NE7       29.90F
WARRENTON*     FAIR      69  42  37 NW9G21    29.89F

$$

VAZ055>057-282000-
NORTH AND CENTRAL PIEDMONT

CITY           SKY/WX    TMP DP  RH WIND       PRES   REMARKS
FREDERICKSBRG* PTSUNNY   69  40  34 N12G21    29.88F
STAFFORD*      PTSUNNY   66  37  33 N10G25    29.93F

$$

NCZ024-NYZ072-PAZ021-071-VAZ022-071-282000-
OTHER REGIONAL OBSERVATIONS

CITY           SKY/WX    TMP DP  RH WIND       PRES   REMARKS
NEW YORK CITY  MOSUNNY   69  33  26 VRB3      29.76F
PHILADELPHIA   MOSUNNY   69  37  30 N18G24    29.79F
PITTSBURGH     MOSUNNY   62  35  36 N15       29.99F
ROANOKE        MOSUNNY   65  37  35 VRB3      29.94F
RICHMOND       MOSUNNY   68  39  34 N10G21    29.88F
RALEIGH        MOSUNNY   67  40  37 E7        29.93F

$$

ANZ530>537-282000-
MARINE OBSERVATIONS

STATION/POSITION TIME  TEMP    WIND        PRES
                       AIR SEA DIR/SP/G
                 (UTC) (F)     (DEG/KT/KT) (MB)
THOMAS PT LIGHT  1900   60 54   30/ 11/ 12 1011.6F
BALT KEY BRIDGE  1800   61                 1011.4F
COVE POINT       1800   58                 1012.3F
LEWISETTA        1800   63                 1011.5F
SOLOMONS ISLAND  1800      57                N/A
PINEY POINT      1800          310/ 12/ 13   N/A

$$


Close this window


The National Weather Service prepares its forecasts and other services in collaboration with agencies like the US Geological Survey, US Bureau of Reclamation, US Army Corps of Engineers, Natural Resource Conservation Service, National Park Service, ALERT Users Group, Bureau of Indian Affairs, and many state and local emergency managers across the country. For details, please click here.

National Weather Service
(Baltimore/Washington) Sterling Weather Forecast Office
43858 Weather Service Rd.
Sterling, VA 20166
(703) 996-2200
Page last modified: 28-Apr-2015 7:10 PM
Disclaimer
Credits
Glossary
Privacy Policy
About Us
Career Opportunities